Weather Roundup
Issued by NWS

Home | Current Version | Previous Version | Graphics & Text | Print | Product List | Glossary Off
Versions: 1 2 3 4 5 6 7 8 9 10 11 12 13 14 15 16 17 18 19 20 21 22 23 24 25 26 27 28 29 30 31 32 33 34 35 36 37 38 39 40 41 42 43 44 45 46 47 48 49 50

000
NZUS93 KARX 211110
HRRWXR

CURRENT HOURLY OBSERVATIONS ACROSS
MUCH OF THE UPPER MISSISSIPPI VALLEY
NATIONAL WEATHER SERVICE LA CROSSE WI
600 AM CDT TUE OCT 21 2014


...SOUTHEAST MINNESOTA...


CITY           SKY/WX    TMP DP  RH WIND       PRES   REMARKS
ROCHESTER      CLEAR     39  36  89 NE5       30.16R
ROCHESTER/MAYO FAIR      39  35  84 CALM      30.16R
WINONA         CLEAR     36  36 100 CALM      30.17R
AUSTIN         CLEAR     34  34 100 CALM      30.14R
ALBERT LEA     CLEAR     36  36 100 CALM      30.14R
DODGE CENTER   PTCLDY    37  36  93 E3        30.15R
PRESTON        CLEAR     38  36  91 CALM      30.15S
OWATONNA       CLEAR     36  34  93 CALM      30.15R
FARIBAULT      CLEAR     30  28  93 CALM      30.15S
$$

...ELSEWHERE IN MINNESOTA...


CITY           SKY/WX    TMP DP  RH WIND       PRES   REMARKS
MINNEAPOLIS    CLEAR     39  36  89 NE3       30.16R
INTNL FALLS    CLOUDY    40  34  79 SE5       30.17R
DULUTH         CLOUDY    43  36  76 E9        30.18R
RED WING       CLEAR     34  32  93 CALM      30.16R
REDWOOD FALLS  PTCLDY    39  36  89 E5        30.12R
MANKATO        CLEAR     41  34  75 E7        30.13S
WORTHINGTON    CLEAR     36  34  93 SE3       30.12S
FAIRMONT       PTCLDY    34  28  80 CALM      30.12S
$$

...SOUTHWEST WISCONSIN...


CITY           SKY/WX    TMP DP  RH WIND       PRES   REMARKS
LA CROSSE      CLEAR     37  35  92 N6        30.16R WCI  32
PRAIRIE DU CHI CLEAR     35  34  94 CALM      30.15R
BOSCOBEL       FOG       33  31  92 CALM      30.16R VSB 3/4
LONE ROCK      CLEAR     39  34  82 W5        30.14R
PLATTEVILLE    CLEAR     37  36  93 CALM      30.14R
FORT MC COY    CLEAR     28  28 100 CALM      30.17R
CAMP DOUGLAS   CLEAR     40  40  99 NE3       30.16R
VIROQUA        FAIR      37  37 100 CALM      30.14R
WIS DELLS      CLEAR     42  36  80 CALM      30.14R
$$

...ELSEWHERE IN WISCONSIN...


CITY           SKY/WX    TMP DP  RH WIND       PRES   REMARKS
MILWAUKEE      PTCLDY    45  38  76 N8        30.10R
MADISON        PTCLDY    44  39  82 N9        30.13R
GREEN BAY      CLOUDY    43  37  79 N10       30.14R
EAU CLAIRE     CLEAR     36  34  92 NE7       30.17R WCI  30
BLACK RVR FLS  PTSUNNY   27  27 100 CALM      30.16R
MEDFORD        CLOUDY    39  34  81 N9        30.16R WCI  33
WAUSAU         CLOUDY    42  34  73 N8        30.15R
WIS RAPIDS     CLEAR     38  34  85 NE7       30.17R WCI  33
MARSHFIELD     MOCLDY    40  34  79 N3        30.16R
RICE LAKE      CLOUDY    43  35  71 E5        30.19R
$$

...NORTHEAST IOWA...


CITY           SKY/WX    TMP DP  RH WIND       PRES   REMARKS
DECORAH        PTCLDY    37  37 100 CALM      30.14R
MASON CITY     CLEAR     35  34  96 NE3       30.15R
CHARLES CITY   CLEAR     37  36  93 NE8       30.14R WCI  31
OELWEIN        CLEAR     37  36  93 NE6       30.14R WCI  33
$$

...ELSEWHERE IN IOWA...


CITY           SKY/WX    TMP DP  RH WIND       PRES   REMARKS
DES MOINES     CLEAR     44  40  85 CALM      30.12R
IOWA CITY      CLEAR     38  37  97 CALM      30.13R
FORT DODGE     CLEAR     36  32  87 CALM      30.13R
$$

...NORTHERN ILLINOIS...


CITY           SKY/WX    TMP DP  RH WIND       PRES   REMARKS
CHICAGO-OHARE  MOCLDY    48  40  73 N10       30.07R
CHICAGO-MIDWAY CLOUDY    51  43  74 N9        30.06R
MOLINE         CLEAR     37  36  96 CALM      30.11R
ROCKFORD       MOCLDY    43  39  86 N6        30.13R
PEORIA         CLEAR     46  39  76 N3        30.09R
$$

NOTE: "FAIR" INDICATES FEW OR NO CLOUDS BELOW 12,000 FEET WITH NO
SIGNIFICANT WEATHER AND/OR OBSTRUCTIONS TO VISIBILITY. WIND
SPEEDS ARE IN MILES-PER-HOUR.



USA.gov is the U.S. government's official web portal to all federal, state and local government web resources and services.